Sokodé Airport

Jump to: basic info | weather | comments

Related pages: nearby airports | nearby navaids | notams | map

Basic information (top)

Codes: DXSK
Location: lon 8.983000, lat 1.150000, elev 1,214 ft / 370 m msl
Status: small_airport
Scheduled airline service: no
Links: Wikipedia Mobile

Weather (top)

Current conditions (rec'd 2014/10/26 09:00Z):

DXSK 260900Z 14006KT CAVOK 27/21 Q////

Airport forecast for Niamtougou International Airport 47nm (87km) N (rec'd 2014/10/26 06:33Z):

TAF TAF DXNG 260512Z 2606/2706 VRB04KT 9999 FEW010 PROB30 
      TEMPO 2614/2620 TS BKN010 FEW020CB

Latest comments (top)

No comments yet for Sokodé Airport

More... (top)

See also NOTAMs and nearby airports and navaids, or visit the Sokodé Airport page at the main OurAirports website..